JZA7991 CYDF-CYUL

Flight info

Callsign JZA7991
Flight time 2h 32m
Altitude 24000
Route FROSS DCT USBAM DCT MIILS DCT KEBIG ROCKT3
Aircraft DH8D/M-VGDW/C

Departure

Time 2026-04-20 17:04
Airport Deer Lake Airport (CYDF)

Arrival

Time 2026-04-20 19:36
Airport Montreal / Pierre Elliott Trudeau International Airport (CYUL)
Time Latitude Longitude Altitude Speed Heading
2026-04-20 16:43 49.20987 -57.39781 49 ft 0 kts 321°
2026-04-20 16:56 49.21001 -57.39787 47 ft 3 kts
2026-04-20 16:57 49.21014 -57.39734 47 ft 7 kts 101°
2026-04-20 16:57 49.21010 -57.39650 47 ft 9 kts 65°
2026-04-20 16:57 49.21062 -57.39565 49 ft 12 kts 44°
2026-04-20 16:57 49.21103 -57.39488 51 ft 8 kts 58°
2026-04-20 16:58 49.21099 -57.39414 52 ft 6 kts 127°
2026-04-20 16:58 49.21073 -57.39365 52 ft 5 kts 133°
2026-04-20 16:58 49.21041 -57.39314 53 ft 6 kts 134°
2026-04-20 16:58 49.21030 -57.39254 53 ft 6 kts 62°
2026-04-20 16:59 49.21062 -57.39202 53 ft 6 kts 44°
2026-04-20 16:59 49.21102 -57.39140 54 ft 8 kts 47°
2026-04-20 16:59 49.21165 -57.39037 57 ft 18 kts 48°
2026-04-20 16:59 49.21267 -57.38869 57 ft 21 kts 45°
2026-04-20 17:00 49.21438 -57.38600 62 ft 14 kts 46°
2026-04-20 17:00 49.21501 -57.38499 64 ft 11 kts 46°
2026-04-20 17:00 49.21557 -57.38409 64 ft 11 kts 47°
2026-04-20 17:01 49.21612 -57.38325 64 ft 11 kts 34°
2026-04-20 17:01 49.21666 -57.38293 63 ft 5 kts 63°
2026-04-20 17:01 49.21641 -57.38270 63 ft 5 kts 229°
2026-04-20 17:01 49.21629 -57.38296 63 ft 0 kts 230°
2026-04-20 17:03 49.21628 -57.38298 63 ft 4 kts 230°
2026-04-20 17:03 49.21450 -57.38592 62 ft 78 kts 226°
2026-04-20 17:03 49.20912 -57.39455 68 ft 138 kts 229°
2026-04-20 17:03 49.20252 -57.40673 379 ft 159 kts 232°
2026-04-20 17:04 49.19563 -57.42077 883 ft 172 kts 234°
2026-04-20 17:04 49.18830 -57.43567 1464 ft 182 kts 233°
2026-04-20 17:04 49.18055 -57.45119 2038 ft 190 kts 234°
2026-04-20 17:04 49.17277 -57.46761 2690 ft 193 kts 241°
2026-04-20 17:05 49.16763 -57.48630 3380 ft 195 kts 249°
2026-04-20 17:05 49.16304 -57.50563 4113 ft 194 kts 248°
2026-04-20 17:05 49.15845 -57.52475 4843 ft 194 kts 246°
2026-04-20 17:05 49.15385 -57.54375 5563 ft 194 kts 245°
2026-04-20 17:06 49.14903 -57.56340 6088 ft 203 kts 244°
2026-04-20 17:06 49.14391 -57.58403 6565 ft 213 kts 243°
2026-04-20 17:06 49.13855 -57.60550 7053 ft 221 kts 243°
2026-04-20 17:06 49.13304 -57.62762 7501 ft 229 kts 243°
2026-04-20 17:07 49.12730 -57.65056 7967 ft 235 kts 242°
2026-04-20 17:07 49.12142 -57.67406 8447 ft 240 kts 242°
2026-04-20 17:07 49.11541 -57.69804 8928 ft 245 kts 242°
2026-04-20 17:07 49.10929 -57.72245 9395 ft 250 kts 242°
2026-04-20 17:08 49.10307 -57.74719 9842 ft 253 kts 242°
2026-04-20 17:08 49.09679 -57.77219 10302 ft 255 kts 242°
2026-04-20 17:08 49.09036 -57.79773 10767 ft 257 kts 242°
2026-04-20 17:08 49.08394 -57.82317 11223 ft 259 kts 242°
2026-04-20 17:09 49.07745 -57.84888 11672 ft 261 kts 242°
2026-04-20 17:09 49.07097 -57.87452 12120 ft 264 kts 243°
2026-04-20 17:09 49.06437 -57.90061 12570 ft 265 kts 243°
2026-04-20 17:09 49.05770 -57.92689 13030 ft 267 kts 243°
2026-04-20 17:10 49.05099 -57.95332 13460 ft 269 kts 243°
2026-04-20 17:10 49.04428 -57.97980 13912 ft 270 kts 243°
2026-04-20 17:10 49.03751 -58.00650 14369 ft 271 kts 243°
2026-04-20 17:10 49.03067 -58.03325 14792 ft 272 kts 243°
2026-04-20 17:11 49.02388 -58.05999 15277 ft 272 kts 243°
2026-04-20 17:11 49.01705 -58.08667 15724 ft 273 kts 242°
2026-04-20 17:11 49.01012 -58.11370 16155 ft 274 kts 242°
2026-04-20 17:11 49.00317 -58.14070 16544 ft 277 kts 242°
2026-04-20 17:12 48.99613 -58.16814 16916 ft 280 kts 242°
2026-04-20 17:12 48.98906 -58.19573 17261 ft 281 kts 242°
2026-04-20 17:12 48.98195 -58.22356 17620 ft 281 kts 241°
2026-04-20 17:12 48.97493 -58.25088 17965 ft 281 kts 242°
2026-04-20 17:13 48.96777 -58.27862 18311 ft 280 kts 241°
2026-04-20 17:13 48.96069 -58.30619 18636 ft 279 kts 241°
2026-04-20 17:13 48.95369 -58.33335 18983 ft 276 kts 240°
2026-04-20 17:13 48.94673 -58.36037 19334 ft 273 kts 241°
2026-04-20 17:14 48.93991 -58.38677 19671 ft 271 kts 240°
2026-04-20 17:14 48.93303 -58.41338 20021 ft 269 kts 240°
2026-04-20 17:14 48.92620 -58.43971 20373 ft 267 kts 240°
2026-04-20 17:14 48.91941 -58.46590 20719 ft 266 kts 240°
2026-04-20 17:15 48.91269 -58.49173 21071 ft 265 kts 240°
2026-04-20 17:15 48.90592 -58.51775 21416 ft 265 kts 239°
2026-04-20 17:15 48.89918 -58.54360 21760 ft 264 kts 239°
2026-04-20 17:15 48.89240 -58.56956 22112 ft 265 kts 239°
2026-04-20 17:16 48.88564 -58.59542 22455 ft 266 kts 239°
2026-04-20 17:16 48.87877 -58.62168 22803 ft 267 kts 239°
2026-04-20 17:16 48.87196 -58.64766 23140 ft 268 kts 239°
2026-04-20 17:16 48.86500 -58.67419 23498 ft 269 kts 238°
2026-04-20 17:17 48.85813 -58.70038 23850 ft 270 kts 238°
2026-04-20 17:17 48.85111 -58.72695 23918 ft 283 kts 239°
2026-04-20 17:17 48.84364 -58.75506 23931 ft 293 kts 239°
2026-04-20 17:17 48.83596 -58.78409 23931 ft 302 kts 239°
2026-04-20 17:18 48.82801 -58.81415 23925 ft 310 kts 239°
2026-04-20 17:18 48.81992 -58.84479 23907 ft 317 kts 239°
2026-04-20 17:18 48.81169 -58.87597 23912 ft 321 kts 239°
2026-04-20 17:18 48.80337 -58.90744 23921 ft 321 kts 239°
2026-04-20 17:19 48.79523 -58.93830 23911 ft 310 kts 239°
2026-04-20 17:19 48.78736 -58.96812 23903 ft 300 kts 239°
2026-04-20 17:19 48.77977 -58.99678 23909 ft 293 kts 239°
2026-04-20 17:19 48.77218 -59.02527 23913 ft 290 kts 238°
2026-04-20 17:20 48.76466 -59.05346 23918 ft 289 kts 239°
2026-04-20 17:20 48.75707 -59.08186 23920 ft 288 kts 239°
2026-04-20 17:20 48.74959 -59.10985 23923 ft 287 kts 238°
2026-04-20 17:20 48.74213 -59.13771 23928 ft 286 kts 238°
2026-04-20 17:21 48.73465 -59.16561 23919 ft 286 kts 238°
2026-04-20 17:21 48.72723 -59.19327 23918 ft 285 kts 238°
2026-04-20 17:21 48.71975 -59.22110 23929 ft 285 kts 238°
2026-04-20 17:21 48.71231 -59.24876 23930 ft 286 kts 238°
2026-04-20 17:22 48.70481 -59.27656 23926 ft 288 kts 238°
2026-04-20 17:22 48.69727 -59.30451 23927 ft 289 kts 238°
2026-04-20 17:22 48.68965 -59.33277 23935 ft 290 kts 238°
2026-04-20 17:22 48.68204 -59.36095 23931 ft 291 kts 238°
2026-04-20 17:23 48.67442 -59.38914 23935 ft 291 kts 238°
2026-04-20 17:23 48.66671 -59.41761 23937 ft 292 kts 238°
2026-04-20 17:23 48.65898 -59.44614 23937 ft 293 kts 238°
2026-04-20 17:23 48.65122 -59.47476 23938 ft 293 kts 238°
2026-04-20 17:24 48.64351 -59.50317 23937 ft 293 kts 238°
2026-04-20 17:24 48.63579 -59.53155 23938 ft 293 kts 238°
2026-04-20 17:24 48.62797 -59.56026 23946 ft 294 kts 238°
2026-04-20 17:24 48.62030 -59.58846 23942 ft 293 kts 238°
2026-04-20 17:25 48.61249 -59.61707 23940 ft 293 kts 238°
2026-04-20 17:25 48.60469 -59.64568 23939 ft 293 kts 238°
2026-04-20 17:25 48.59697 -59.67389 23949 ft 292 kts 237°
2026-04-20 17:25 48.58919 -59.70229 23953 ft 292 kts 237°
2026-04-20 17:26 48.58145 -59.73045 23946 ft 292 kts 237°
2026-04-20 17:26 48.57364 -59.75892 23945 ft 292 kts 237°
2026-04-20 17:26 48.56595 -59.78694 23946 ft 292 kts 237°
2026-04-20 17:26 48.55819 -59.81514 23953 ft 292 kts 237°
2026-04-20 17:27 48.55035 -59.84355 23957 ft 291 kts 237°
2026-04-20 17:27 48.54260 -59.87164 23949 ft 292 kts 237°
2026-04-20 17:27 48.53479 -59.89991 23948 ft 292 kts 237°
2026-04-20 17:27 48.52697 -59.92821 23954 ft 291 kts 237°
2026-04-20 17:28 48.51918 -59.95634 23958 ft 291 kts 236°
2026-04-20 17:28 48.51138 -59.98447 23958 ft 291 kts 237°
2026-04-20 17:28 48.50357 -60.01262 23949 ft 291 kts 236°
2026-04-20 17:28 48.49570 -60.04098 23952 ft 291 kts 236°
2026-04-20 17:29 48.48791 -60.06900 23969 ft 290 kts 237°
2026-04-20 17:29 48.48013 -60.09694 23954 ft 290 kts 236°
2026-04-20 17:29 48.47226 -60.12516 23957 ft 290 kts 236°
2026-04-20 17:29 48.46449 -60.15299 23965 ft 290 kts 236°
2026-04-20 17:30 48.45671 -60.18081 23962 ft 290 kts 236°
2026-04-20 17:30 48.44891 -60.20866 23973 ft 289 kts 237°
2026-04-20 17:30 48.44110 -60.23656 23967 ft 289 kts 236°
2026-04-20 17:30 48.43320 -60.26471 23963 ft 289 kts 236°
2026-04-20 17:31 48.42538 -60.29255 23956 ft 289 kts 236°
2026-04-20 17:31 48.41755 -60.32040 23950 ft 289 kts 237°
2026-04-20 17:31 48.40976 -60.34808 23951 ft 289 kts 236°
2026-04-20 17:31 48.40194 -60.37587 23963 ft 289 kts 236°
2026-04-20 17:32 48.39412 -60.40358 23967 ft 288 kts 236°
2026-04-20 17:32 48.38620 -60.43159 23967 ft 289 kts 236°
2026-04-20 17:32 48.37839 -60.45921 23967 ft 289 kts 236°
2026-04-20 17:32 48.37054 -60.48693 23965 ft 289 kts 236°
2026-04-20 17:33 48.36261 -60.51493 23953 ft 290 kts 235°
2026-04-20 17:33 48.35472 -60.54272 23962 ft 289 kts 236°
2026-04-20 17:33 48.34684 -60.57045 23967 ft 289 kts 236°
2026-04-20 17:33 48.33896 -60.59819 23969 ft 289 kts 235°
2026-04-20 17:34 48.33108 -60.62585 23968 ft 289 kts 236°
2026-04-20 17:34 48.32321 -60.65346 23965 ft 288 kts 236°
2026-04-20 17:34 48.31529 -60.68122 23964 ft 289 kts 234°
2026-04-20 17:34 48.30742 -60.70874 23963 ft 289 kts 235°
2026-04-20 17:35 48.29945 -60.73661 23976 ft 288 kts 235°
2026-04-20 17:35 48.29162 -60.76398 23966 ft 288 kts 234°
2026-04-20 17:35 48.28373 -60.79148 23972 ft 288 kts 235°
2026-04-20 17:35 48.27577 -60.81921 23981 ft 288 kts 235°
2026-04-20 17:36 48.26786 -60.84673 23976 ft 287 kts 235°
2026-04-20 17:36 48.25990 -60.87443 23979 ft 287 kts 235°
2026-04-20 17:36 48.25205 -60.90166 23989 ft 287 kts 234°
2026-04-20 17:36 48.24409 -60.92926 23986 ft 287 kts 235°
2026-04-20 17:37 48.23621 -60.95658 23989 ft 287 kts 235°
2026-04-20 17:37 48.22824 -60.98415 23986 ft 286 kts 235°
2026-04-20 17:37 48.22037 -61.01138 23980 ft 286 kts 234°
2026-04-20 17:37 48.21248 -61.03859 23983 ft 286 kts 235°
2026-04-20 17:38 48.20447 -61.06620 23987 ft 286 kts 234°
2026-04-20 17:38 48.19661 -61.09330 23980 ft 286 kts 234°
2026-04-20 17:38 48.18859 -61.12087 23980 ft 287 kts 234°
2026-04-20 17:38 48.18061 -61.14829 23986 ft 286 kts 234°
2026-04-20 17:39 48.17271 -61.17540 23989 ft 286 kts 234°
2026-04-20 17:39 48.16469 -61.20291 23986 ft 286 kts 234°
2026-04-20 17:39 48.15677 -61.23006 23983 ft 286 kts 234°
2026-04-20 17:39 48.14901 -61.25722 23983 ft 287 kts 236°
2026-04-20 17:40 48.14180 -61.28534 23990 ft 288 kts 237°
2026-04-20 17:40 48.13481 -61.31306 24006 ft 286 kts 237°
2026-04-20 17:40 48.12774 -61.34105 23991 ft 286 kts 236°
2026-04-20 17:40 48.12064 -61.36902 23999 ft 286 kts 236°
2026-04-20 17:41 48.11363 -61.39652 23993 ft 286 kts 237°
2026-04-20 17:41 48.10648 -61.42446 23996 ft 285 kts 236°
2026-04-20 17:41 48.09947 -61.45182 23999 ft 285 kts 236°
2026-04-20 17:41 48.09236 -61.47953 24009 ft 284 kts 237°
2026-04-20 17:42 48.08527 -61.50705 24010 ft 283 kts 236°
2026-04-20 17:42 48.07817 -61.53463 23992 ft 283 kts 236°
2026-04-20 17:42 48.07117 -61.56173 24004 ft 283 kts 236°
2026-04-20 17:42 48.06408 -61.58919 24020 ft 281 kts 236°
2026-04-20 17:43 48.05698 -61.61660 24033 ft 280 kts 236°
2026-04-20 17:43 48.04998 -61.64357 24006 ft 280 kts 236°
2026-04-20 17:43 48.04298 -61.67054 24009 ft 280 kts 236°
2026-04-20 17:43 48.03590 -61.69781 24009 ft 280 kts 234°
2026-04-20 17:44 48.02885 -61.72477 24016 ft 280 kts 235°
2026-04-20 17:44 48.02174 -61.75203 24032 ft 280 kts 234°
2026-04-20 17:44 48.01474 -61.77884 24022 ft 280 kts 235°
2026-04-20 17:44 48.00762 -61.80611 24013 ft 280 kts 235°
2026-04-20 17:45 48.00053 -61.83318 24034 ft 278 kts 235°
2026-04-20 17:45 47.99355 -61.85988 24015 ft 279 kts 234°
2026-04-20 17:45 47.98654 -61.88665 24038 ft 277 kts 234°
2026-04-20 17:45 47.97946 -61.91363 24041 ft 276 kts 235°
2026-04-20 17:46 47.97248 -61.94013 24028 ft 276 kts 234°
2026-04-20 17:46 47.96547 -61.96681 24011 ft 276 kts 235°
2026-04-20 17:46 47.95845 -61.99345 24023 ft 275 kts 234°
2026-04-20 17:46 47.95146 -62.02000 24044 ft 274 kts 234°
2026-04-20 17:47 47.94455 -62.04615 24037 ft 274 kts 234°
2026-04-20 17:47 47.93752 -62.07270 24016 ft 274 kts 234°
2026-04-20 17:47 47.93059 -62.09890 24024 ft 273 kts 234°
2026-04-20 17:47 47.92360 -62.12535 24042 ft 273 kts 234°
2026-04-20 17:48 47.91667 -62.15144 24042 ft 272 kts 234°
2026-04-20 17:48 47.90964 -62.17791 24042 ft 272 kts 235°
2026-04-20 17:48 47.90272 -62.20388 24031 ft 271 kts 234°
2026-04-20 17:48 47.89575 -62.23009 24027 ft 272 kts 234°
2026-04-20 17:49 47.88872 -62.25640 24029 ft 273 kts 234°
2026-04-20 17:49 47.88176 -62.28247 24057 ft 273 kts 233°
2026-04-20 17:49 47.87471 -62.30885 24045 ft 274 kts 234°
2026-04-20 17:49 47.86765 -62.33526 24022 ft 275 kts 234°
2026-04-20 17:50 47.86055 -62.36183 24034 ft 275 kts 234°
2026-04-20 17:50 47.85355 -62.38797 24036 ft 274 kts 234°
2026-04-20 17:50 47.84645 -62.41445 24042 ft 274 kts 234°
2026-04-20 17:50 47.83934 -62.44091 24041 ft 274 kts 235°
2026-04-20 17:51 47.83232 -62.46703 24041 ft 273 kts 235°
2026-04-20 17:51 47.82523 -62.49338 24039 ft 273 kts 235°
2026-04-20 17:51 47.81826 -62.51926 24022 ft 273 kts 234°
2026-04-20 17:51 47.81115 -62.54559 24028 ft 273 kts 234°
2026-04-20 17:52 47.80414 -62.57158 24030 ft 273 kts 235°
2026-04-20 17:52 47.79705 -62.59781 24055 ft 271 kts 235°
2026-04-20 17:52 47.79008 -62.62361 24044 ft 271 kts 234°
2026-04-20 17:52 47.78298 -62.64978 24038 ft 271 kts 234°
2026-04-20 17:53 47.77591 -62.67586 24031 ft 271 kts 234°
2026-04-20 17:53 47.76895 -62.70150 24031 ft 270 kts 234°
2026-04-20 17:53 47.76188 -62.72750 24036 ft 269 kts 234°
2026-04-20 17:53 47.75491 -62.75309 24037 ft 269 kts 234°
2026-04-20 17:54 47.74792 -62.77873 24051 ft 269 kts 234°
2026-04-20 17:54 47.74083 -62.80473 24047 ft 269 kts 234°
2026-04-20 17:54 47.73383 -62.83038 24053 ft 268 kts 235°
2026-04-20 17:54 47.72685 -62.85590 24048 ft 267 kts 235°
2026-04-20 17:55 47.71991 -62.88128 24033 ft 267 kts 233°
2026-04-20 17:55 47.71287 -62.90700 24043 ft 267 kts 234°
2026-04-20 17:55 47.70590 -62.93240 24051 ft 266 kts 235°
2026-04-20 17:55 47.69895 -62.95772 24040 ft 266 kts 234°
2026-04-20 17:56 47.69190 -62.98335 24046 ft 266 kts 234°
2026-04-20 17:56 47.68496 -63.00859 24044 ft 266 kts 234°
2026-04-20 17:56 47.67793 -63.03412 24048 ft 265 kts 234°
2026-04-20 17:56 47.67095 -63.05943 24042 ft 265 kts 234°
2026-04-20 17:57 47.66404 -63.08448 24041 ft 265 kts 235°
2026-04-20 17:57 47.65702 -63.10990 24048 ft 264 kts 234°
2026-04-20 17:57 47.65008 -63.13500 24047 ft 263 kts 235°
2026-04-20 17:57 47.64318 -63.15990 24047 ft 263 kts 235°
2026-04-20 17:58 47.63621 -63.18508 24041 ft 263 kts 234°
2026-04-20 17:58 47.62951 -63.21015 24046 ft 267 kts 236°
2026-04-20 17:58 47.62423 -63.23714 24047 ft 272 kts 240°
2026-04-20 17:58 47.61950 -63.26405 24046 ft 273 kts 240°
2026-04-20 17:59 47.61472 -63.29136 24042 ft 272 kts 240°
2026-04-20 17:59 47.60993 -63.31862 24053 ft 271 kts 241°
2026-04-20 17:59 47.60515 -63.34565 24053 ft 271 kts 240°
2026-04-20 17:59 47.60038 -63.37247 24052 ft 271 kts 240°
2026-04-20 18:00 47.59555 -63.39957 24043 ft 271 kts 240°
2026-04-20 18:00 47.59076 -63.42633 24044 ft 271 kts 241°
2026-04-20 18:00 47.58590 -63.45349 24047 ft 271 kts 239°
2026-04-20 18:00 47.58108 -63.48029 24054 ft 270 kts 240°
2026-04-20 18:01 47.57620 -63.50739 24047 ft 271 kts 240°
2026-04-20 18:01 47.57138 -63.53407 24045 ft 271 kts 240°
2026-04-20 18:01 47.56647 -63.56123 24051 ft 271 kts 240°
2026-04-20 18:01 47.56165 -63.58795 24067 ft 270 kts 240°
2026-04-20 18:02 47.55682 -63.61458 24057 ft 270 kts 239°
2026-04-20 18:02 47.55190 -63.64164 24065 ft 270 kts 240°
2026-04-20 18:02 47.54705 -63.66831 24069 ft 270 kts 240°
2026-04-20 18:02 47.54212 -63.69533 24069 ft 270 kts 240°
2026-04-20 18:03 47.53725 -63.72204 24051 ft 271 kts 239°
2026-04-20 18:03 47.53231 -63.74900 24056 ft 270 kts 240°
2026-04-20 18:03 47.52746 -63.77560 24059 ft 269 kts 240°
2026-04-20 18:03 47.52259 -63.80219 24057 ft 270 kts 239°
2026-04-20 18:04 47.51765 -63.82912 24072 ft 269 kts 239°
2026-04-20 18:04 47.51278 -63.85562 24072 ft 269 kts 240°
2026-04-20 18:04 47.50785 -63.88237 24083 ft 268 kts 240°
2026-04-20 18:04 47.50291 -63.90918 24071 ft 268 kts 240°
2026-04-20 18:05 47.49312 -63.96220 24058 ft 268 kts 240°
2026-04-20 18:05 47.48819 -63.98882 24059 ft 268 kts 240°
2026-04-20 18:05 47.48331 -64.01516 24055 ft 267 kts 239°
2026-04-20 18:06 47.47838 -64.04176 24059 ft 267 kts 239°
2026-04-20 18:06 47.47351 -64.06795 24066 ft 266 kts 240°
2026-04-20 18:06 47.46856 -64.09451 24069 ft 266 kts 239°
2026-04-20 18:06 47.46365 -64.12078 24072 ft 266 kts 240°
2026-04-20 18:07 47.45870 -64.14734 24060 ft 266 kts 240°
2026-04-20 18:07 47.45379 -64.17362 24060 ft 266 kts 239°
2026-04-20 18:07 47.44887 -64.19982 24066 ft 266 kts 239°
2026-04-20 18:07 47.44390 -64.22633 24045 ft 267 kts 240°
2026-04-20 18:08 47.43897 -64.25259 24027 ft 267 kts 239°
2026-04-20 18:08 47.43404 -64.27879 24036 ft 267 kts 239°
2026-04-20 18:08 47.42902 -64.30549 24044 ft 267 kts 239°
2026-04-20 18:08 47.42407 -64.33174 24050 ft 266 kts 239°
2026-04-20 18:09 47.41913 -64.35790 24058 ft 266 kts 240°
2026-04-20 18:09 47.41411 -64.38445 24050 ft 266 kts 239°
2026-04-20 18:09 47.40914 -64.41069 24047 ft 266 kts 239°
2026-04-20 18:09 47.40417 -64.43686 24047 ft 267 kts 239°
2026-04-20 18:10 47.39911 -64.46349 24045 ft 267 kts 239°
2026-04-20 18:10 47.39411 -64.48983 24038 ft 267 kts 239°
2026-04-20 18:10 47.38913 -64.51596 24056 ft 266 kts 240°
2026-04-20 18:10 47.38410 -64.54242 24052 ft 266 kts 239°
2026-04-20 18:11 47.37910 -64.56857 24055 ft 266 kts 239°
2026-04-20 18:11 47.37407 -64.59489 24043 ft 266 kts 240°
2026-04-20 18:11 47.36909 -64.62092 24048 ft 265 kts 240°
2026-04-20 18:11 47.36407 -64.64712 24048 ft 265 kts 239°
2026-04-20 18:12 47.35907 -64.67316 24054 ft 264 kts 239°
2026-04-20 18:12 47.35401 -64.69939 24057 ft 264 kts 239°
2026-04-20 18:12 47.34905 -64.72520 24047 ft 264 kts 239°
2026-04-20 18:12 47.34400 -64.75139 24049 ft 264 kts 238°
2026-04-20 18:13 47.33896 -64.77747 24056 ft 264 kts 239°
2026-04-20 18:13 47.33399 -64.80321 24045 ft 264 kts 239°
2026-04-20 18:13 47.32893 -64.82938 24051 ft 263 kts 239°
2026-04-20 18:13 47.32395 -64.85507 24047 ft 263 kts 239°
2026-04-20 18:14 47.31888 -64.88113 24057 ft 263 kts 239°
2026-04-20 18:14 47.31390 -64.90678 24049 ft 263 kts 238°
2026-04-20 18:14 47.30884 -64.93276 24053 ft 262 kts 239°
2026-04-20 18:14 47.30384 -64.95843 24051 ft 262 kts 239°
2026-04-20 18:15 47.29878 -64.98437 24057 ft 261 kts 239°
2026-04-20 18:15 47.29382 -65.00978 24050 ft 261 kts 239°
2026-04-20 18:15 47.28878 -65.03552 24052 ft 260 kts 238°
2026-04-20 18:15 47.28376 -65.06107 24060 ft 261 kts 239°
2026-04-20 18:16 47.27871 -65.08682 24047 ft 261 kts 239°
2026-04-20 18:16 47.27371 -65.11228 24046 ft 261 kts 238°
2026-04-20 18:16 47.26867 -65.13788 24066 ft 260 kts 239°
2026-04-20 18:16 47.26362 -65.16354 24060 ft 260 kts 239°
2026-04-20 18:17 47.25854 -65.18927 24056 ft 261 kts 238°
2026-04-20 18:17 47.25351 -65.21472 24052 ft 261 kts 239°
2026-04-20 18:17 47.24840 -65.24055 24046 ft 261 kts 239°
2026-04-20 18:17 47.24336 -65.26605 24052 ft 261 kts 239°
2026-04-20 18:18 47.23831 -65.29150 24057 ft 261 kts 238°
2026-04-20 18:18 47.23320 -65.31723 24062 ft 260 kts 239°
2026-04-20 18:18 47.22809 -65.34294 24052 ft 260 kts 239°
2026-04-20 18:18 47.22300 -65.36851 24050 ft 260 kts 239°
2026-04-20 18:19 47.21796 -65.39385 24051 ft 260 kts 239°
2026-04-20 18:19 47.21289 -65.41923 24056 ft 260 kts 239°
2026-04-20 18:19 47.20783 -65.44456 24068 ft 259 kts 239°
2026-04-20 18:19 47.20269 -65.47023 24068 ft 259 kts 239°
2026-04-20 18:20 47.19765 -65.49541 24058 ft 259 kts 239°
2026-04-20 18:20 47.19257 -65.52074 24055 ft 259 kts 238°
2026-04-20 18:20 47.18743 -65.54631 24069 ft 258 kts 239°
2026-04-20 18:20 47.18238 -65.57144 24069 ft 258 kts 239°
2026-04-20 18:21 47.17729 -65.59666 24076 ft 259 kts 239°
2026-04-20 18:21 47.17213 -65.62223 24076 ft 259 kts 239°
2026-04-20 18:21 47.16705 -65.64739 24070 ft 259 kts 239°
2026-04-20 18:21 47.16187 -65.67299 24068 ft 259 kts 238°
2026-04-20 18:22 47.15678 -65.69812 24063 ft 259 kts 238°
2026-04-20 18:22 47.15160 -65.72370 24071 ft 259 kts 238°
2026-04-20 18:22 47.14650 -65.74884 24074 ft 259 kts 239°
2026-04-20 18:22 47.14133 -65.77425 24074 ft 259 kts 239°
2026-04-20 18:23 47.13621 -65.79945 24072 ft 259 kts 239°
2026-04-20 18:23 47.13103 -65.82486 24072 ft 259 kts 238°
2026-04-20 18:23 47.12584 -65.85033 24079 ft 259 kts 239°
2026-04-20 18:23 47.12065 -65.87573 24072 ft 259 kts 238°
2026-04-20 18:24 47.11550 -65.90088 24074 ft 259 kts 239°
2026-04-20 18:24 47.11027 -65.92642 24068 ft 260 kts 239°
2026-04-20 18:24 47.10512 -65.95155 24065 ft 260 kts 239°
2026-04-20 18:24 47.09988 -65.97709 24068 ft 259 kts 239°
2026-04-20 18:25 47.09466 -66.00249 24061 ft 259 kts 239°
2026-04-20 18:25 47.08952 -66.02748 24073 ft 259 kts 239°
2026-04-20 18:25 47.08425 -66.05297 24079 ft 260 kts 240°
2026-04-20 18:25 47.07899 -66.07843 24079 ft 262 kts 240°
2026-04-20 18:26 47.07373 -66.10387 24036 ft 262 kts 239°
2026-04-20 18:26 47.06842 -66.12961 24052 ft 262 kts 239°
2026-04-20 18:26 47.06317 -66.15493 24075 ft 262 kts 239°
2026-04-20 18:26 47.05782 -66.18068 24066 ft 264 kts 240°
2026-04-20 18:27 47.05250 -66.20625 24067 ft 264 kts 240°
2026-04-20 18:27 47.04709 -66.23228 24068 ft 266 kts 240°
2026-04-20 18:27 47.04166 -66.25838 24065 ft 266 kts 241°
2026-04-20 18:27 47.03627 -66.28419 24044 ft 268 kts 240°
2026-04-20 18:28 47.03079 -66.31049 24040 ft 268 kts 240°
2026-04-20 18:28 47.02538 -66.33641 24037 ft 268 kts 242°
2026-04-20 18:28 47.01998 -66.36225 24061 ft 268 kts 241°
2026-04-20 18:28 47.01446 -66.38858 24069 ft 269 kts 241°
2026-04-20 18:29 47.00897 -66.41472 24068 ft 269 kts 242°
2026-04-20 18:29 47.00348 -66.44086 24050 ft 271 kts 242°
2026-04-20 18:29 46.99788 -66.46748 24058 ft 271 kts 243°
2026-04-20 18:29 46.99234 -66.49376 24055 ft 271 kts 242°
2026-04-20 18:30 46.98682 -66.52000 24052 ft 271 kts 242°
2026-04-20 18:30 46.98125 -66.54636 24063 ft 272 kts 242°
2026-04-20 18:30 46.97561 -66.57305 24069 ft 272 kts 242°
2026-04-20 18:30 46.97000 -66.59950 24065 ft 274 kts 243°
2026-04-20 18:31 46.96435 -66.62614 24059 ft 275 kts 244°
2026-04-20 18:31 46.95868 -66.65282 24046 ft 275 kts 243°
2026-04-20 18:31 46.95295 -66.67982 24040 ft 276 kts 243°
2026-04-20 18:31 46.94725 -66.70658 24046 ft 277 kts 243°
2026-04-20 18:32 46.94146 -66.73377 24041 ft 278 kts 244°
2026-04-20 18:32 46.93568 -66.76083 24031 ft 279 kts 243°
2026-04-20 18:32 46.92994 -66.78776 24034 ft 279 kts 244°
2026-04-20 18:32 46.92414 -66.81485 24048 ft 280 kts 244°
2026-04-20 18:33 46.91831 -66.84203 24041 ft 281 kts 244°
2026-04-20 18:33 46.91246 -66.86931 24030 ft 282 kts 244°
2026-04-20 18:33 46.90655 -66.89680 24017 ft 284 kts 244°
2026-04-20 18:33 46.90065 -66.92426 24004 ft 284 kts 244°
2026-04-20 18:34 46.89468 -66.95200 24019 ft 285 kts 244°
2026-04-20 18:34 46.88876 -66.97944 24032 ft 286 kts 245°
2026-04-20 18:34 46.88270 -67.00748 24033 ft 289 kts 245°
2026-04-20 18:34 46.87669 -67.03522 24026 ft 290 kts 245°
2026-04-20 18:35 46.87059 -67.06350 24018 ft 290 kts 245°
2026-04-20 18:35 46.86467 -67.09148 24021 ft 291 kts 246°
2026-04-20 18:35 46.85866 -67.11989 24036 ft 291 kts 245°
2026-04-20 18:35 46.85270 -67.14797 24048 ft 292 kts 246°
2026-04-20 18:36 46.84666 -67.17645 24044 ft 292 kts 246°
2026-04-20 18:36 46.84069 -67.20454 24057 ft 292 kts 246°
2026-04-20 18:36 46.83460 -67.23311 24052 ft 293 kts 246°
2026-04-20 18:36 46.82852 -67.26160 24060 ft 294 kts 246°
2026-04-20 18:37 46.82248 -67.28984 24052 ft 294 kts 246°
2026-04-20 18:37 46.81639 -67.31826 24078 ft 294 kts 246°
2026-04-20 18:37 46.81028 -67.34676 24083 ft 295 kts 246°
2026-04-20 18:37 46.80408 -67.37565 24067 ft 295 kts 246°
2026-04-20 18:38 46.79795 -67.40418 24081 ft 295 kts 246°
2026-04-20 18:38 46.79179 -67.43274 24088 ft 297 kts 247°
2026-04-20 18:38 46.78561 -67.46140 24078 ft 297 kts 246°
2026-04-20 18:38 46.77945 -67.48994 24095 ft 297 kts 247°
2026-04-20 18:39 46.77325 -67.51861 24090 ft 297 kts 246°
2026-04-20 18:39 46.76698 -67.54755 24084 ft 297 kts 247°
2026-04-20 18:39 46.76080 -67.57609 24088 ft 297 kts 247°
2026-04-20 18:39 46.75452 -67.60500 24105 ft 297 kts 247°
2026-04-20 18:40 46.74833 -67.63342 24097 ft 298 kts 248°
2026-04-20 18:40 46.74206 -67.66221 24095 ft 298 kts 246°
2026-04-20 18:40 46.73569 -67.69139 24105 ft 300 kts 247°
2026-04-20 18:40 46.72938 -67.72031 24101 ft 301 kts 247°
2026-04-20 18:41 46.72304 -67.74927 24094 ft 301 kts 247°
2026-04-20 18:41 46.71667 -67.77840 24100 ft 302 kts 248°
2026-04-20 18:41 46.71032 -67.80737 24111 ft 302 kts 248°
2026-04-20 18:41 46.70384 -67.83685 24094 ft 302 kts 247°
2026-04-20 18:42 46.69745 -67.86595 24124 ft 302 kts 248°
2026-04-20 18:42 46.69099 -67.89526 24116 ft 304 kts 248°
2026-04-20 18:42 46.68456 -67.92440 24106 ft 305 kts 248°
2026-04-20 18:42 46.67808 -67.95377 24093 ft 304 kts 248°
2026-04-20 18:43 46.67159 -67.98312 24118 ft 304 kts 248°
2026-04-20 18:43 46.66508 -68.01248 24111 ft 305 kts 248°
2026-04-20 18:43 46.65858 -68.04179 24102 ft 305 kts 248°
2026-04-20 18:43 46.65205 -68.07123 24102 ft 306 kts 248°
2026-04-20 18:44 46.64553 -68.10053 24110 ft 306 kts 248°
2026-04-20 18:44 46.63898 -68.12993 24115 ft 307 kts 249°
2026-04-20 18:44 46.63232 -68.15979 24112 ft 307 kts 249°
2026-04-20 18:44 46.62576 -68.18919 24108 ft 308 kts 248°
2026-04-20 18:45 46.61915 -68.21877 24104 ft 308 kts 249°
2026-04-20 18:45 46.61255 -68.24825 24106 ft 308 kts 248°
2026-04-20 18:45 46.60591 -68.27785 24115 ft 308 kts 249°
2026-04-20 18:45 46.59928 -68.30738 24109 ft 308 kts 249°
2026-04-20 18:46 46.59260 -68.33705 24113 ft 309 kts 249°
2026-04-20 18:46 46.58590 -68.36681 24108 ft 309 kts 249°
2026-04-20 18:46 46.57919 -68.39656 24096 ft 309 kts 249°
2026-04-20 18:46 46.57251 -68.42617 24103 ft 309 kts 249°
2026-04-20 18:47 46.56578 -68.45592 24107 ft 309 kts 249°
2026-04-20 18:47 46.55910 -68.48541 24109 ft 309 kts 249°
2026-04-20 18:47 46.55240 -68.51495 24106 ft 309 kts 249°
2026-04-20 18:47 46.54567 -68.54459 24112 ft 309 kts 249°
2026-04-20 18:48 46.53894 -68.57421 24099 ft 309 kts 249°
2026-04-20 18:48 46.53217 -68.60390 24093 ft 309 kts 249°
2026-04-20 18:48 46.52544 -68.63342 24092 ft 309 kts 249°
2026-04-20 18:48 46.51862 -68.66331 24098 ft 309 kts 249°
2026-04-20 18:49 46.51191 -68.69264 24080 ft 309 kts 249°
2026-04-20 18:49 46.50510 -68.72240 24078 ft 310 kts 249°
2026-04-20 18:49 46.49828 -68.75214 24069 ft 310 kts 249°
2026-04-20 18:49 46.49147 -68.78179 24069 ft 310 kts 250°
2026-04-20 18:50 46.48468 -68.81130 24073 ft 311 kts 250°
2026-04-20 18:50 46.47776 -68.84136 24075 ft 311 kts 250°
2026-04-20 18:50 46.47092 -68.87106 24069 ft 311 kts 250°
2026-04-20 18:50 46.46414 -68.90041 24074 ft 311 kts 250°
2026-04-20 18:51 46.45720 -68.93043 24074 ft 311 kts 250°
2026-04-20 18:51 46.45033 -68.96009 24078 ft 311 kts 250°
2026-04-20 18:51 46.44347 -68.98971 24086 ft 311 kts 250°
2026-04-20 18:51 46.43657 -69.01943 24088 ft 311 kts 250°
2026-04-20 18:52 46.42966 -69.04916 24087 ft 311 kts 250°
2026-04-20 18:52 46.42276 -69.07880 24085 ft 311 kts 250°
2026-04-20 18:52 46.41586 -69.10838 24093 ft 311 kts 250°
2026-04-20 18:52 46.40884 -69.13847 24096 ft 311 kts 250°
2026-04-20 18:53 46.40194 -69.16800 24102 ft 311 kts 250°
2026-04-20 18:53 46.39502 -69.19755 24104 ft 311 kts 250°
2026-04-20 18:53 46.38809 -69.22712 24103 ft 312 kts 250°
2026-04-20 18:53 46.38105 -69.25714 24110 ft 312 kts 250°
2026-04-20 18:54 46.37405 -69.28689 24110 ft 312 kts 250°
2026-04-20 18:54 46.36706 -69.31658 24105 ft 312 kts 250°
2026-04-20 18:54 46.36009 -69.34621 24102 ft 312 kts 250°
2026-04-20 18:54 46.35310 -69.37583 24106 ft 312 kts 250°
2026-04-20 18:55 46.34612 -69.40537 24106 ft 312 kts 250°
2026-04-20 18:55 46.33902 -69.43534 24104 ft 312 kts 250°
2026-04-20 18:55 46.33203 -69.46487 24100 ft 312 kts 250°
2026-04-20 18:55 46.32597 -69.49040 24098 ft 312 kts 251°
2026-04-20 18:56 46.32064 -69.51286 24091 ft 312 kts 251°
2026-04-20 18:56 46.31364 -69.54228 24095 ft 312 kts 251°
2026-04-20 18:56 46.30655 -69.57207 24098 ft 312 kts 251°
2026-04-20 18:57 46.29945 -69.60184 24092 ft 312 kts 251°
2026-04-20 18:57 46.29236 -69.63158 24093 ft 312 kts 251°
2026-04-20 18:57 46.28531 -69.66105 24090 ft 313 kts 250°
2026-04-20 18:57 46.27811 -69.69113 24089 ft 313 kts 250°
2026-04-20 18:58 46.27103 -69.72066 24089 ft 313 kts 251°
2026-04-20 18:58 46.26389 -69.75043 24089 ft 314 kts 250°
2026-04-20 18:58 46.25673 -69.78024 24084 ft 314 kts 250°
2026-04-20 18:58 46.24952 -69.81018 24080 ft 314 kts 250°
2026-04-20 18:59 46.24241 -69.83967 24082 ft 314 kts 250°
2026-04-20 18:59 46.23522 -69.86948 24083 ft 314 kts 251°
2026-04-20 18:59 46.22799 -69.89940 24084 ft 314 kts 250°
2026-04-20 18:59 46.22085 -69.92892 24082 ft 314 kts 251°
2026-04-20 19:00 46.21379 -69.95804 24079 ft 314 kts 251°
2026-04-20 19:00 46.20658 -69.98777 24076 ft 314 kts 251°
2026-04-20 19:00 46.19935 -70.01755 24076 ft 314 kts 251°
2026-04-20 19:00 46.19217 -70.04704 24080 ft 314 kts 251°
2026-04-20 19:01 46.18491 -70.07688 24082 ft 314 kts 251°
2026-04-20 19:01 46.17760 -70.10682 24082 ft 314 kts 251°
2026-04-20 19:01 46.17038 -70.13640 24086 ft 314 kts 251°
2026-04-20 19:01 46.16315 -70.16599 24088 ft 314 kts 251°
2026-04-20 19:02 46.15588 -70.19568 24091 ft 315 kts 251°
2026-04-20 19:02 46.14859 -70.22542 24095 ft 315 kts 251°
2026-04-20 19:02 46.14133 -70.25499 24099 ft 315 kts 251°
2026-04-20 19:02 46.13394 -70.28503 24101 ft 315 kts 251°
2026-04-20 19:03 46.12662 -70.31479 24105 ft 315 kts 251°
2026-04-20 19:03 46.11935 -70.34429 24109 ft 315 kts 251°
2026-04-20 19:03 46.11200 -70.37408 24111 ft 314 kts 251°
2026-04-20 19:03 46.10471 -70.40357 24116 ft 314 kts 251°
2026-04-20 19:04 46.09735 -70.43332 24121 ft 314 kts 251°
2026-04-20 19:04 46.08996 -70.46315 24129 ft 314 kts 251°
2026-04-20 19:04 46.08263 -70.49266 24133 ft 314 kts 252°
2026-04-20 19:04 46.07528 -70.52227 24136 ft 315 kts 252°
2026-04-20 19:05 46.06787 -70.55206 24140 ft 315 kts 252°
2026-04-20 19:05 46.06048 -70.58174 24139 ft 315 kts 252°
2026-04-20 19:05 46.05315 -70.61112 24138 ft 316 kts 252°
2026-04-20 19:05 46.04567 -70.64108 24134 ft 316 kts 252°
2026-04-20 19:06 46.03821 -70.67091 24142 ft 317 kts 251°
2026-04-20 19:06 46.03079 -70.70055 24139 ft 317 kts 251°
2026-04-20 19:06 46.02326 -70.73061 24143 ft 318 kts 251°
2026-04-20 19:06 46.01573 -70.76060 24143 ft 318 kts 251°
2026-04-20 19:07 46.00822 -70.79047 24144 ft 318 kts 251°
2026-04-20 19:07 46.00072 -70.82027 24141 ft 319 kts 251°
2026-04-20 19:07 45.99327 -70.85059 24138 ft 318 kts 254°
2026-04-20 19:07 45.99009 -70.88181 24159 ft 316 kts 268°
2026-04-20 19:08 45.98947 -70.91356 24152 ft 316 kts 269°
2026-04-20 19:08 45.98840 -70.97664 24142 ft 317 kts 269°
2026-04-20 19:08 45.98782 -71.00820 24145 ft 316 kts 269°
2026-04-20 19:09 45.98722 -71.03974 24148 ft 317 kts 269°
2026-04-20 19:09 45.98658 -71.07127 24149 ft 317 kts 269°
2026-04-20 19:09 45.98592 -71.10332 24149 ft 317 kts 269°
2026-04-20 19:09 45.98526 -71.13464 24144 ft 317 kts 269°
2026-04-20 19:10 45.98457 -71.16660 24145 ft 317 kts 269°
2026-04-20 19:10 45.98386 -71.19820 24143 ft 318 kts 269°
2026-04-20 19:10 45.98315 -71.23004 24140 ft 318 kts 269°
2026-04-20 19:10 45.98242 -71.26166 24140 ft 318 kts 269°
2026-04-20 19:11 45.98169 -71.29334 24143 ft 318 kts 269°
2026-04-20 19:11 45.98093 -71.32542 24145 ft 318 kts 269°
2026-04-20 19:11 45.98018 -71.35686 24147 ft 318 kts 269°
2026-04-20 19:11 45.97941 -71.38885 24148 ft 318 kts 269°
2026-04-20 19:12 45.97863 -71.42081 24148 ft 318 kts 270°
2026-04-20 19:12 45.97784 -71.45235 24153 ft 318 kts 270°
2026-04-20 19:12 45.97705 -71.48425 24156 ft 318 kts 270°
2026-04-20 19:12 45.97624 -71.51603 24156 ft 318 kts 270°
2026-04-20 19:13 45.97543 -71.54762 24155 ft 318 kts 269°
2026-04-20 19:13 45.97460 -71.57964 24154 ft 318 kts 270°
2026-04-20 19:13 45.97377 -71.61118 24152 ft 318 kts 270°
2026-04-20 19:13 45.97292 -71.64297 24149 ft 319 kts 270°
2026-04-20 19:14 45.97207 -71.67467 24150 ft 319 kts 269°
2026-04-20 19:14 45.97120 -71.70685 24148 ft 319 kts 269°
2026-04-20 19:14 45.97032 -71.73877 24146 ft 320 kts 269°
2026-04-20 19:14 45.96944 -71.77074 24143 ft 320 kts 270°
2026-04-20 19:15 45.96854 -71.80263 24146 ft 320 kts 270°
2026-04-20 19:15 45.96764 -71.83449 24155 ft 320 kts 269°
2026-04-20 19:15 45.96673 -71.86638 24055 ft 323 kts 270°
2026-04-20 19:15 45.96581 -71.89895 23815 ft 329 kts 270°
2026-04-20 19:16 45.96486 -71.93175 23562 ft 327 kts 269°
2026-04-20 19:16 45.96386 -71.96394 23292 ft 319 kts 269°
2026-04-20 19:16 45.96288 -71.99572 23024 ft 313 kts 270°
2026-04-20 19:16 45.96194 -72.02636 22758 ft 308 kts 269°
2026-04-20 19:17 45.96100 -72.05690 22494 ft 304 kts 269°
2026-04-20 19:17 45.96006 -72.08735 22233 ft 301 kts 269°
2026-04-20 19:17 45.95914 -72.11706 21979 ft 301 kts 269°
2026-04-20 19:17 45.95822 -72.14759 21738 ft 309 kts 269°
2026-04-20 19:18 45.95728 -72.17865 21493 ft 315 kts 269°
2026-04-20 19:18 45.95630 -72.21043 21243 ft 320 kts 269°
2026-04-20 19:18 45.95530 -72.24249 20992 ft 324 kts 269°
2026-04-20 19:18 45.95428 -72.27470 20741 ft 326 kts 269°
2026-04-20 19:19 45.95321 -72.30763 20487 ft 329 kts 269°
2026-04-20 19:19 45.95215 -72.34029 20233 ft 330 kts 269°
2026-04-20 19:19 45.95107 -72.37312 19973 ft 328 kts 269°
2026-04-20 19:19 45.94852 -72.40555 19680 ft 326 kts 258°
2026-04-20 19:20 45.93939 -72.43506 19433 ft 324 kts 245°
2026-04-20 19:20 45.92882 -72.46344 19169 ft 321 kts 245°
2026-04-20 19:20 45.91818 -72.49182 18901 ft 319 kts 245°
2026-04-20 19:20 45.90771 -72.51972 18637 ft 317 kts 245°
2026-04-20 19:21 45.89731 -72.54747 18374 ft 316 kts 245°
2026-04-20 19:21 45.88698 -72.57503 18115 ft 316 kts 245°
2026-04-20 19:21 45.87643 -72.60326 17864 ft 323 kts 245°
2026-04-20 19:21 45.86585 -72.63156 17605 ft 321 kts 245°
2026-04-20 19:22 45.85535 -72.65955 17342 ft 319 kts 244°
2026-04-20 19:22 45.84475 -72.68784 17078 ft 318 kts 244°
2026-04-20 19:22 45.83440 -72.71539 16820 ft 317 kts 244°
2026-04-20 19:22 45.82392 -72.74332 16558 ft 316 kts 244°
2026-04-20 19:23 45.81353 -72.77097 16295 ft 316 kts 244°
2026-04-20 19:23 45.80301 -72.79893 16032 ft 315 kts 244°
2026-04-20 19:23 45.79265 -72.82642 15771 ft 315 kts 244°
2026-04-20 19:23 45.78242 -72.85343 15465 ft 304 kts 244°
2026-04-20 19:24 45.77257 -72.87929 15063 ft 293 kts 244°
2026-04-20 19:24 45.76292 -72.90477 14662 ft 289 kts 245°
2026-04-20 19:24 45.75334 -72.93007 14267 ft 286 kts 245°
2026-04-20 19:24 45.74395 -72.95487 13874 ft 283 kts 245°
2026-04-20 19:25 45.73473 -72.97908 13474 ft 272 kts 244°
2026-04-20 19:25 45.72585 -73.00232 13070 ft 261 kts 245°
2026-04-20 19:25 45.71876 -73.02526 12654 ft 248 kts 257°
2026-04-20 19:25 45.71578 -73.04884 12255 ft 237 kts 264°
2026-04-20 19:26 45.71342 -73.07185 11848 ft 229 kts 264°
2026-04-20 19:26 45.71117 -73.09385 11446 ft 223 kts 264°
2026-04-20 19:26 45.70895 -73.11557 11039 ft 220 kts 264°
2026-04-20 19:26 45.70595 -73.13758 10664 ft 232 kts 259°
2026-04-20 19:27 45.70192 -73.16054 10233 ft 240 kts 258°
2026-04-20 19:27 45.69772 -73.18356 9756 ft 238 kts 258°
2026-04-20 19:27 45.69354 -73.20641 9295 ft 237 kts 258°
2026-04-20 19:27 45.68943 -73.22888 8840 ft 235 kts 257°
2026-04-20 19:28 45.68529 -73.25153 8385 ft 234 kts 257°
2026-04-20 19:28 45.68119 -73.27383 7945 ft 232 kts 257°
2026-04-20 19:28 45.67714 -73.29591 7484 ft 230 kts 258°
2026-04-20 19:28 45.67317 -73.31780 7097 ft 227 kts 258°
2026-04-20 19:29 45.66915 -73.33968 6698 ft 225 kts 258°
2026-04-20 19:29 45.66524 -73.36107 6304 ft 222 kts 258°
2026-04-20 19:29 45.66134 -73.38228 5878 ft 221 kts 258°
2026-04-20 19:29 45.65738 -73.40392 5459 ft 227 kts 257°
2026-04-20 19:30 45.65340 -73.42596 5071 ft 231 kts 258°
2026-04-20 19:30 45.64935 -73.44808 4686 ft 232 kts 258°
2026-04-20 19:30 45.64526 -73.47006 4261 ft 227 kts 258°
2026-04-20 19:30 45.64127 -73.49146 3834 ft 220 kts 258°
2026-04-20 19:31 45.63742 -73.51222 3412 ft 215 kts 258°
2026-04-20 19:31 45.63372 -73.53182 3403 ft 195 kts 257°
2026-04-20 19:31 45.62700 -73.54864 3436 ft 196 kts 231°
2026-04-20 19:31 45.61702 -73.56207 3453 ft 196 kts 227°
2026-04-20 19:32 45.60676 -73.57499 3467 ft 203 kts 225°
2026-04-20 19:32 45.59569 -73.58881 3318 ft 219 kts 226°
2026-04-20 19:32 45.58424 -73.60368 3004 ft 224 kts 226°
2026-04-20 19:32 45.57285 -73.61830 2632 ft 216 kts 226°
2026-04-20 19:33 45.56199 -73.63254 2366 ft 203 kts 227°
2026-04-20 19:33 45.55177 -73.64592 2048 ft 194 kts 227°
2026-04-20 19:33 45.54236 -73.65824 1739 ft 175 kts 227°
2026-04-20 19:33 45.53391 -73.66930 1524 ft 152 kts 227°
2026-04-20 19:34 45.52670 -73.67878 1289 ft 133 kts 227°
2026-04-20 19:34 45.52008 -73.68766 1169 ft 131 kts 230°
2026-04-20 19:34 45.51330 -73.69648 988 ft 131 kts 227°
2026-04-20 19:34 45.50670 -73.70528 822 ft 127 kts 227°
2026-04-20 19:35 45.50030 -73.71365 625 ft 123 kts 231°
2026-04-20 19:35 45.49374 -73.72236 540 ft 128 kts 227°
2026-04-20 19:35 45.48702 -73.73082 296 ft 127 kts 226°
2026-04-20 19:35 45.48094 -73.73873 134 ft 112 kts 225°
2026-04-20 19:36 45.47683 -73.74458 128 ft 55 kts 225°
2026-04-20 19:36 45.47372 -73.74866 128 ft 59 kts 219°
2026-04-20 19:36 45.47060 -73.75256 128 ft 58 kts 221°
2026-04-20 19:36 45.46851 -73.75496 128 ft 32 kts 221°
2026-04-20 19:37 45.46672 -73.75604 128 ft 33 kts 192°
2026-04-20 19:37 45.46478 -73.75669 128 ft 16 kts 193°
2026-04-20 19:37 45.46352 -73.75711 128 ft 24 kts 193°
2026-04-20 19:37 45.46220 -73.75723 128 ft 12 kts 178°
2026-04-20 19:38 45.46138 -73.75603 128 ft 23 kts 96°
2026-04-20 19:38 45.46144 -73.75256 128 ft 47 kts 87°
2026-04-20 19:38 45.46153 -73.74935 128 ft 32 kts 86°
2026-04-20 19:38 45.46156 -73.74717 129 ft 17 kts 112°
2026-04-20 19:39 45.46091 -73.74687 129 ft 5 kts 178°
2026-04-20 19:39 45.46073 -73.74686 129 ft 0 kts 178°